Weather History for Sierra Vista, AZ

Change the Weather History Date:

Tuesday, December 25, 2012

  Actual Average Record
Temperature  
Mean Temperature 46 °F -  
Max Temperature 54 °F 57 °F 79 °F (1983)
Min Temperature 39 °F 35 °F 24 °F (1982)
Degree Days  
Heating Degree Days 18    
Moisture  
Dew Point 25 °F    
Average Humidity 46    
Maximum Humidity 67    
Minimum Humidity 21    
Precipitation  
Precipitation 0.00 in - - ()
Sea Level Pressure  
Sea Level Pressure 29.98 in    
Wind  
Wind Speed 11 mph (NW)    
Max Wind Speed 25 mph    
Max Gust Speed 24 mph    
Visibility 10 miles    
Events      
Averages and records for this station are not official NWS values.
T = Trace of Precipitation, MM = Missing Value Source: NWS Daily Summary

Daily Weather History Graph

Daily Weather History Graph

Search for Another Location

Airport:

Trip Planner

Search our weather history database for the weather conditions in past years. The results will help you decide how hot, cold, wet, or windy it might be!

Date:

Astronomy

Dec. 25, 2012 Rise Set
Actual Time 7:18 AM MST 5:24 PM MST
Civil Twilight 6:52 AM MST 5:51 PM MST
Nautical Twilight 6:21 AM MST 6:22 PM MST
Astronomical Twilight 5:51 AM MST 6:51 PM MST
Moon 3:33 PM MST 4:56 AM MST
Length of Visible Light 10h 59m
Length of Day
10h 05m
Waxing Gibbous, 94% of the Moon is Illuminated
Dec 25
Waxing Gibbous
Dec 28
Full
Jan 4
Last Quarter
Jan 11
New
Jan 18
First Quarter

Hourly Weather History & Observations

Time (MST) Temp. Windchill Dew Point Humidity Pressure Visibility Wind Dir Wind Speed Gust Speed Precip Events Conditions
12:56 AM 44.1 °F 37.1 °F 30.0 °F 58% 29.94 in 10.0 mi WNW 15.0 mph 24.2 mph N/A   Partly Cloudy
1:56 AM 43.0 °F 36.4 °F 30.0 °F 60% 29.96 in 10.0 mi WNW 12.7 mph - N/A   Clear
2:56 AM 41.0 °F 33.1 °F 30.9 °F 67% 29.96 in 10.0 mi WNW 15.0 mph - N/A   Clear
3:56 AM 43.0 °F 36.0 °F 30.0 °F 60% 29.96 in 10.0 mi NW 13.8 mph - N/A   Partly Cloudy
4:56 AM 42.1 °F 32.1 °F 32.0 °F 67% 29.93 in 10.0 mi WNW 25.3 mph - N/A   Clear
5:56 AM 42.1 °F 33.3 °F 30.0 °F 62% 29.97 in 10.0 mi WNW 19.6 mph - N/A   Clear
6:56 AM 41.0 °F 31.9 °F 28.0 °F 60% 29.98 in 10.0 mi West 19.6 mph 24.2 mph N/A   Clear
7:56 AM 39.9 °F 33.9 °F 25.0 °F 55% 30.02 in 10.0 mi West 9.2 mph - N/A   Clear
8:56 AM 43.0 °F 37.7 °F 27.0 °F 53% 30.02 in 10.0 mi West 9.2 mph - N/A   Clear
9:56 AM 45.0 °F 40.1 °F 27.0 °F 49% 30.04 in 10.0 mi WNW 9.2 mph - N/A   Clear
10:56 AM 48.9 °F - 24.1 °F 38% 30.04 in 10.0 mi WNW 8.1 mph - N/A   Clear
11:56 AM 51.1 °F - 18.0 °F 27% 30.02 in 10.0 mi WNW 16.1 mph 23.0 mph N/A   Clear
12:56 PM 53.1 °F - 19.0 °F 26% 29.99 in 10.0 mi NW 13.8 mph - N/A   Clear
1:56 PM 54.0 °F - 14.0 °F 21% 29.96 in 10.0 mi NW 5.8 mph - N/A   Clear
2:56 PM 53.1 °F - 19.0 °F 26% 29.96 in 10.0 mi NNE 6.9 mph - N/A   Clear
3:56 PM 50.0 °F - 16.0 °F 26% 29.96 in 10.0 mi NE 8.1 mph - N/A   Clear
4:56 PM 48.9 °F - 16.0 °F 27% 29.97 in 10.0 mi North 4.6 mph - N/A   Clear
5:56 PM 46.9 °F - 19.9 °F 34% 29.99 in 10.0 mi Calm Calm - N/A   Clear
6:56 PM 46.9 °F - 23.0 °F 39% 30.00 in 10.0 mi Calm Calm - N/A   Clear
7:56 PM 46.9 °F - 23.0 °F 39% 30.00 in 10.0 mi Calm Calm - N/A   Clear
8:56 PM 45.0 °F - 25.0 °F 46% 30.00 in 10.0 mi Calm Calm - N/A   Clear
9:56 PM 44.1 °F - 27.0 °F 51% 30.00 in 10.0 mi Calm Calm - N/A   Clear
10:56 PM 43.0 °F - 28.0 °F 56% 29.99 in 10.0 mi Calm Calm - N/A   Clear
11:56 PM 43.0 °F - 27.0 °F 53% 29.98 in 10.0 mi Calm Calm - N/A   Clear